Location: Altleiningen
(49.5078°N, 8.0741°E)
Time: 15:43:53
(UTC+00:00)

CZ-2C R/B - Pass Details

Date: 14 June 2025
Orbit: 632 x 691 km, 98.1° (Epoch: 20 July)

Event Time Altitude Azimuth Distance (km) Brightness Sun altitude
Rises 21:47:08 0° 20° (NNE) 2,986 7.8 -13.8°
Reaches altitude 10° 21:49:29 10° 28° (NNE) 2,079 6.8 -13.9°
Maximum altitude 21:53:44 39° 98° (E) 1,002 4.4 -14.2°
Enters shadow 21:56:03 23° 152° (SSE) 1,415 4.8 -14.4°
